FENGYUN 1C DEB

Satellite information

Favourite Embed

Satellite Type and Status

DEBRISIN ORBIT

Key statistics

Satellite FENGYUN 1C DEB at a glance.

Uptime

9714

Days in orbit

Revolutions

≈ 14.1

Per day

Orbit

SSO

Sun Synchronous Orbit

Inclination

98.6

Latest

Satellite identification and parameters

Extended collection of information and parameters for FENGYUN 1C DEB.

Object identification

Identified? True

Debris? True

Object name: FENGYUN 1C DEB

International designator: 1999-025DXG

Object number (NORAD): 36279

Object ID (CCSDS): 36279

Country: PEOPLES REPUBLIC OF CHINA (PRC)

Current information (Y/N): Y

RCS size: SMALL

Orbital parameters

Period: 101.787 minutes

Inclination: 98.5605 deg

SMA: 7221.388 km

Apoapsis: 888.796 km

Periapsis: 797.709 km

RAAN: 320.3989 deg

Eccentricy: 0.00630677

Argument of periapsis: 68.1387 deg

Mean anomaly: 292.6479 deg

Mean motion: 14.147242 rev/day

Mean motion (dot): 0.00000446 rev/day2

B* drag term: 0.00024838235 1/REarth

Two-line elements (TLE)

Creation date: Dec. 8, 2025, 11:02 a.m.

Reference frame: TEME

Reference center: EARTH

Epoch: Dec. 8, 2025, 4:59 a.m. UTC

TLE line 0: 0 FENGYUN 1C DEB

TLE line 1: 1 36279U 99025DXG 25342.20831728 .00000446 00000-0 24838-3 0 9991

TLE line 2: 2 36279 98.5605 320.3989 0063068 68.1387 292.6479 14.14724200889753

Live tracking on map

Real-time ground track for satellite FENGYUN 1C DEB.

In-orbit conjunctions

A list of the most updated potential collisions computed for object FENGYUN 1C DEB.

Target Orbit TCA Probability of collision Miss distance Type
CZ-6A DEB SSO 2025-08-01 21:22:05 0.0002449544 130.0 (m) DEBRIS
THOR ABLESTAR DEB LEO 2024-11-09 04:57:47 0.0001560091 297.0 (m) DEBRIS

Associated space launch

Chinese polar orbiting meteorological satellite

FENGYUN 1C DEB was lifted into orbit during the mission ‘Long March 4B | Feng Yun 1C’, on board a Long March 4B space rocket.

The launch took place on May 10, 1999, 1:33 a.m. from Launch Complex 7.

For more information about the launch, click the button.

Launch to space Long March 4B | Feng Yun 1C
Long March 4B | Feng Yun 1C

Agency: N/A

Status: Launch Successful

Launch date: May 10, 1999, 1:33 a.m. UTC

Rocket: Long March 4B

Launch pad: Launch Complex 7

Location: Taiyuan Satellite Launch Center, People's Republic of China

...

Latest news about this satellite

There are no fresh news available about this satellite. Check back as we update our databases every day.


Newsletter sign-up

Weekly statistics, charts and insights to help you stay on top of the space industry.